Regional Weather Roundup
Issued by NWS Dallas/Fort Worth, TX

Home | Current Version | Previous Version | Text Only | Print | Product List | Glossary On
Versions: 1 2 3 4 5 6 7 8 9 10 11 12 13 14 15 16 17 18 19 20 21 22 23 24 25 26 27 28 29 30 31 32 33 34 35 36 37 38 39 40 41 42 43 44 45 46 47 48 49 50
000
ASUS44 KFWD 241515
RWRFWD
NORTH TEXAS HOURLY WEATHER ROUNDUP
NATIONAL WEATHER SERVICE FORT WORTH TX
1000 AM CDT FRI MAY 24 2019

NOTE: "FAIR" INDICATES FEW OR NO CLOUDS BELOW 12,000 FEET WITH NO
SIGNIFICANT WEATHER AND/OR OBSTRUCTIONS TO VISIBILITY.

TXZ118-119-241600-
DALLAS/FORT WORTH METROPLEX

CITY           SKY/WX    TMP DP  RH WIND       PRES   REMARKS
DFW AIRPORT    FAIR      81  70  69 SE16      30.03S
DALLAS LOVE    PTSUNNY   82  70  66 S12       30.05R
FTW MEACHAM    PTSUNNY   79  71  76 SE12      30.04R
DAL-EXECUTIVE  FAIR      80  70  71 SE15      30.04F
FTW-ALLIANCE   PTSUNNY   79  70  74 S15       30.03S
FTW-NAS-JRB    PTSUNNY   81  70  69 S17G24    30.04S
FTW-SPINKS     PTSUNNY   79  72  78 SE9G18    30.06R
ARLINGTON      PTSUNNY   81  70  69 SE16G22   30.05S
GRAND PRAIRIE  MOSUNNY   81  70  69 S8        30.06S
ADDISON        CLOUDY    79  70  73 S12G18    30.06S
MESQUITE       PTSUNNY   81  72  74 SE13      30.07R
LANCASTER      PTSUNNY   81  70  70 SE10      30.07R
$$

TXZ091>094-102>105-117-120-121-131>134-241600-
NORTH CENTRAL TEXAS

CITY           SKY/WX    TMP DP  RH WIND       PRES   REMARKS
SHRMAN/DENISON MOSUNNY   79  72  78 SE16G22   30.05F
GAINESVILLE    CLOUDY    79  71  78 S13G21    30.05F
BOWIE          PTSUNNY   79  71  76 SE16G22   30.02F
BRIDGEPORT     PTSUNNY   80  70  71 SE14      30.04F
DECATUR        FAIR      79  70  74 S15G22    30.04S
DENTON         CLOUDY    81  70  69 S14G24    30.04R
MCKINNEY       PTSUNNY   79  72  79 S14       30.06S
BONHAM         FAIR      78  71  76 S13G20    30.08S
GREENVILLE     PTSUNNY   82  70  65 S10G16    30.09S
ROCKWALL       CLOUDY    80  70  72 S12G18    30.07S
TERRELL        FAIR      81  70  69 S13       30.08R
WAXAHACHIE     PTSUNNY   80  71  72 SE15      30.06S
CLEBURNE       PTSUNNY   79  73  83 S10G18    30.06S
GRANBURY       CLOUDY    81  71  71 SE12      30.05R
$$

TXZ083>090-098>101-113>116-127>130-139>142-154-155-241600-
WESTERN NORTH TEXAS

CITY           SKY/WX    TMP DP  RH WIND       PRES   REMARKS
WICHITA FALLS  FAIR      80  71  74 S29G37    29.94S
WF-KICKAPOO    FAIR      80  71  74 S26G38    29.97S
VERNON         CLOUDY    79  71  76 S20G26    29.95S
ABILENE        CLOUDY    76  70  82 SE10      29.99S
ABILENE-DYESS  CLOUDY    75  66  71 SE15      29.98S
GRAHAM         FAIR      78  71  79 SE15G24   29.98S
BRECKENRIDGE   CLOUDY    81  68  65 SE20      29.99S
CISCO          CLOUDY    77  70  78 SE20      30.01S
EASTLAND       CLOUDY    76  70  81 SE12G17   30.01F
RANGER         CLOUDY    77  69  78 SE16      30.03S
MINERAL WELLS  CLOUDY    78  71  79 SE12      30.01S
STEPHENVILLE   CLOUDY    77  69  75 SE10G16   30.06S
COMANCHE       CLOUDY    77  71  79 S12       30.02S
BROWNWOOD      CLOUDY    77  72  83 SE14G20   30.00S
COLEMAN        PTSUNNY   78  67  69 S15G21    29.99S
BRADY          PTSUNNY   77  68  73 S13G24    29.99R
$$

TXZ143>147-156>162-174-175-241600-
CENTRAL TEXAS

CITY           SKY/WX    TMP DP  RH WIND       PRES   REMARKS
WACO           PTSUNNY   83  70  64 SE15      30.03R
WACO-TSTC      MOSUNNY   81  72  74 S13       30.04R
WACO-MCGREGOR  PTSUNNY   82  72  71 SE20      30.03S
HILLSBORO      CLOUDY    80  75  85 SE12G17   30.05R
CORSICANA      CLOUDY    79  71  76 S12       30.08R
MEXIA          PTSUNNY   78  71  77 S12       30.06R
HEARNE         CLOUDY    80  73  79 SE9       30.05R
CAMERON        CLOUDY    81  71  72 SE12G17   30.03S
TEMPLE         FAIR      81  75  83 SE16      30.03S
KILLEEN        CLOUDY    79  69  72 SE20G25   30.02R
KILLEEN-SKYLRK PTSUNNY   81  72  74 S14       30.02R
FORT HOOD      CLOUDY    80  71  73 S17G23    29.98S
GATESVILLE     PTSUNNY   81  70  69 SE17      30.03S
HAMILTON       CLOUDY    79  72  79 S12G17    30.03S
LAMPASAS       PTSUNNY   80  70  70 S12G18    30.01R
$$

TXZ095>097-106>112-122>126-135>138-148>153-164>167-241600-
EAST TEXAS

CITY           SKY/WX    TMP DP  RH WIND       PRES   REMARKS
PARIS          PTSUNNY   80  72  76 S10       30.09S
SULPHUR SPRNGS PTSUNNY   81  70  69 S9        30.11R
MOUNT PLEASANT FAIR      78  69  73 S7        30.10F
GILMER         FAIR      79  69  71 SE6       30.10S
MINEOLA        PTSUNNY   79  70  73 S6        30.09R
TYLER          FAIR      80  69  69 S10       30.08R
LONGVIEW       PTSUNNY   82  72  71 S10G16    30.08S
MARSHALL       FAIR      77  69  75 S8        30.12S
ATHENS         CLOUDY    81  70  69 S10G16    30.06S
PALESTINE      FAIR      80  72  78 S8        30.08S
JACKSONVILLE   PTSUNNY   80  70  71 S12       30.11S
HENDERSON      FAIR      80  70  70 S10       30.10S
CENTER         FAIR      79  70  73 S7        30.11S
NACOGDOCHES    FAIR      80  73  79 SE9       30.09S
LUFKIN         PTSUNNY   81  71  71 S12       30.08R
$$

SUPPLEMENTAL OBSERVATIONS (NWS FORT WORTH AREA)

CITY           SKY/WX    TMP DP  RH WIND       PRES   REMARKS
CADDO GRASSLND   N/A     79  70  73 S12G20      N/A
LBJ GRASSLAND    N/A     81  72  74 S13         N/A
POSSUM KINGDOM   N/A     81  72  74 SE13G23     N/A
GRANBURY         N/A     81  70  69 SE12        N/A
COMANCHE         N/A     79  72  78 SE13G21     N/A
MCGREGOR         N/A     81  70  69 S15         N/A
TEMPLE           N/A     79  72  78 SE7G15      N/A
LAKE LIMESTONE   N/A     82  72  69 S9G17       N/A
PALESTINE        N/A     82  72  69 SE7         N/A
$$

SUPPLEMENTAL OBSERVATIONS (NWS NORMAN AREA)

CITY           SKY/WX    TMP DP  RH WIND       PRES   REMARKS
GOODLETT         N/A     77  69  76 S17       29.93S
ODELL            N/A     79  71  75 S21       29.95S
CROWELL          N/A     78  71  76 S20       29.95S
KNOX CITY        N/A     78  69  75 SE20      29.94F
SEYMOUR          N/A     78  69  75 SE16      29.95S
MILLERS CREEK    N/A     75  68  78 SE17G23     N/A
$$

SUPPLEMENTAL OBSERVATIONS (NWS SAN ANGELO AREA)

CITY           SKY/WX    TMP DP  RH WIND       PRES   REMARKS
WEINERT          N/A     76  69  80 SE15      29.96S
HASKELL          N/A     76  68  77 SE10      29.96S
THROCKMORTON     N/A     78  72  81 SE12        N/A
STAMFORD         N/A     76  70  81 SE17      29.96F
CLYDE            N/A     75  69  83 SE13      30.01S
HAMBY            N/A     75  68  78 SE7G15      N/A
IVIE RESERVOIR   N/A     79  68  69 SE15        N/A
COLORADO BEND    N/A     79  70  73 SE9G18      N/A
$$

SUPPLEMENTAL OBSERVATIONS (NWS SHREVEPORT AREA)

CITY           SKY/WX    TMP DP  RH WIND       PRES   REMARKS
TEXARKANA        N/A     81  72  74 S6          N/A
LINDEN           N/A     81  70  69 S5          N/A
CADDO LAKE       N/A     82  70  65 S5          N/A
LUFKIN           N/A     82  72  69 MISG        N/A
N SABINE NF      N/A     81  70  69 MISG        N/A
$$

SUPPLEMENTAL OBSERVATIONS ARE A COLLECTION OF AUTOMATED INSTRUMENTS
THAT ARE MAINTAINED BY A VARIETY OF FEDERAL AND STATE AGENCIES.
CERTAIN ELEMENTS...SUCH AS HUMIDITY VALUES AND SUSTAINED WIND
SPEEDS...MAY BE APPROXIMATED.





USA.gov is the U.S. government's official web portal to all federal, state and local government web resources and services.